Mendocino, CA (95460)

5:24 AM PDT on August 30, 2016 (GMT -0700)
Big River Ridge Mendocino | | Change Station

Elev 486 ft 39.31 °N, 123.78 °W | Updated 4 minutes ago

Clear
Clear
54.5 °F
Feels Like 54.5 °F
N
0.0
Wind Variable Wind from North
Gusts 0.0 mph

Today
High -- | Low -- °F
--% Chance of Precip.
Yesterday
High -- | Low -- °F
Precip. -- in
Pressure 30.01 in
Visibility 10.0 miles
Clouds Clear
Dew Point 52 °F
Humidity 93%
Rainfall 0.00 in
Snow Depth Not available.
6:42 AM 7:48 PM
Waning Crescent, 4% visible
METAR KUKI 301156Z AUTO 00000KT 10SM CLR 16/11 A3003 RMK AO2 SLP162 T01560111 10167 20156 58003
Pressure 30.01 in
Visibility 10.0 miles
Clouds Clear
Dew Point 52 °F
Humidity 93%
Rainfall 0.00 in
Snow Depth Not available.
6:42 AM 7:48 PM
Waning Crescent, 4% visible
METAR KUKI 301156Z AUTO 00000KT 10SM CLR 16/11 A3003 RMK AO2 SLP162 T01560111 10167 20156 58003

10-Day Weather Forecast

Almanac

Astronomy

Aug. 30, 2016 Rise Set
Actual Time
Civil Twilight
Nautical Twilight
Astronomical Twilight
Moon
Length of Visible Light
Length of Day
Tomorrow will be .
, % of the Moon is Illuminated

Today's Extremes

State Highs State Lows

Community

WunderPhotos

Upload Photos

1,935,818 photos uploaded!

WunderBlog® & News

Nearby

Air Quality

  Air Quality AQ Index Pollutant
Not available.

Snow Depth

Station Depth Elevation

Earthquake Activity

City Distance Mag. Time & Date
Minimum magnitude displayed is 2.5.

Coastal Water Temperatures

Place Temperature

Stations

Nearby Weather Stations

Station Location Temp. Windchill Dew Point Humidity Wind Precip. Elev Updated Type
                   

Watches & Warnings

There are currently no watches in effect.